星链-31537 (STARLINK-31537 )

导读

STARLINK-31537是美国太空探索技术公司(SpaceX)星链互联网星座的组成卫星,于2024年3月31日发射入轨。星链项目旨在构建全球卫星互联网,该卫星同批次发射的星链卫星进一步扩充星座规模,提升全球偏远地区网络覆盖能力,服务全球高速互联网接入需求。

Basic Information
目录编号:
59365
目录名称:
STARLINK-31537
国际标识:
2024-060T
轨道中心:
EARTH
卫星名称:
星链-31537
卫星全名:
星链-31537 (STARLINK-31537 )
卫星状态:
在轨 (已飞行887 天)
发射日期:
2024-03-31 UTC
国别 :
美国 (US)
星等 :
--
Orbit Information
数据来源 国际轨道数据
星历时间: 2026-09-04T14:53:50+0800
10小时前
查看轨道信息
半长轴: 6861.199km
偏心率: 0.0001318
轨道倾角: 43.005°
近地点辐角 280.633°
升交点赤经 331.521°
平近点角 79.437°
近地点: 482.157km
远地点: 483.967km
周期: 94.267分钟
每日圈数: 15.275758
Detailed Information
固有亮度:
5
最大亮度:
0.3
卫星平台:
Starlink v2.0 mini
覆盖范围:
全球
运营商:
太空探索技术公司
运营商所在国:
美国
制造商(研发单位):
太空探索技术公司
制造商所在国:
美国
使用方式:
暂无
Satellite Introduction
星链(Starlink)计划是由太空探索技术公司(SpaceX)提出的一个巨型低轨卫星互联网星座项目,计划在2019年至2024年间在太空搭建由约1.2万颗卫星组成的“星链”网络,其中1584颗将部署在地球上空550千米处的近地轨道,并从2020年开始工作。该卫星仍在工作。
2D Orbit Map
3D Orbit Map
Orbit Altitude Analysis Chart
Orbit Inclination Analysis Chart
Orbit Comprehensive Analysis Chart
View Comprehensive Chart
Conjunction Data List
Event ID Objects TCA Miss Dist (km) Collision Risk Probability Collision Risk Index (CRI) Action
CDM_260906-164405-936506-399921
2026-09-06T
16:44:31+0000
0.404 km
远距离
2.26607E-4 高风险 0.82
CDM_260906-181805-936506-399921
2026-09-06T
18:18:40+0000
1.311 km
极远距离
6.806051E-6 低风险 0.52
CDM_260903-083105-936506-308721
2026-09-03T
08:31:59+0000
2.731 km
极远距离
1.057306E-6 低风险 0.35
CDM_260903-140205-936505-987722
2026-09-03T
14:02:58+0000
2.722 km
极远距离
4.324974E-7 极低风险 0.28
CDM_260903-131505-936505-987722
2026-09-03T
13:15:54+0000
2.807 km
极远距离
4.17027E-7 极低风险 0.27